TimePDT,TemperatureF,Dew PointF,Humidity,Sea Level PressureIn,VisibilityMPH,Wind Direction,Wind SpeedMPH,Gust SpeedMPH,PrecipitationIn,Events,Conditions,WindDirDegrees,DateUTC
12:15 AM,35.6,33.8,93,30.13,10.0,Calm,Calm,-,N/A,,Mostly Cloudy,0,2013-03-25 07:15:00
12:35 AM,33.8,32.0,93,30.12,10.0,Calm,Calm,-,N/A,,Mostly Cloudy,0,2013-03-25 07:35:00
12:55 AM,33.8,32.0,93,30.12,10.0,Calm,Calm,-,N/A,,Mostly Cloudy,0,2013-03-25 07:55:00
1:15 AM,32.0,32.0,100,30.11,10.0,Calm,Calm,-,N/A,,Mostly Cloudy,0,2013-03-25 08:15:00
1:35 AM,32.0,32.0,100,30.11,10.0,Calm,Calm,-,N/A,,Mostly Cloudy,0,2013-03-25 08:35:00
2:15 AM,32.0,32.0,100,30.10,10.0,Calm,Calm,-,N/A,,Mostly Cloudy,0,2013-03-25 09:15:00
2:35 AM,32.0,32.0,100,30.10,10.0,Calm,Calm,-,N/A,,Mostly Cloudy,0,2013-03-25 09:35:00
2:55 AM,33.8,33.8,100,30.09,10.0,Calm,Calm,-,N/A,,Mostly Cloudy,0,2013-03-25 09:55:00
3:15 AM,32.0,32.0,100,30.08,10.0,Calm,Calm,-,N/A,,Mostly Cloudy,0,2013-03-25 10:15:00
3:35 AM,32.0,32.0,100,30.08,10.0,Calm,Calm,-,N/A,,Scattered Clouds,0,2013-03-25 10:35:00
3:55 AM,32.0,32.0,100,30.08,10.0,Calm,Calm,-,N/A,,Mostly Cloudy,0,2013-03-25 10:55:00
4:15 AM,30.2,30.2,100,30.08,10.0,Calm,Calm,-,N/A,,Mostly Cloudy,0,2013-03-25 11:15:00
4:35 AM,32.0,32.0,100,30.08,10.0,Calm,Calm,-,N/A,,Mostly Cloudy,0,2013-03-25 11:35:00
5:15 AM,30.2,30.2,100,30.08,10.0,Calm,Calm,-,N/A,,Mostly Cloudy,0,2013-03-25 12:15:00
5:35 AM,30.2,30.2,100,30.08,10.0,Calm,Calm,-,N/A,,Mostly Cloudy,0,2013-03-25 12:35:00
6:15 AM,28.4,28.4,100,30.07,10.0,Calm,Calm,-,N/A,,Mostly Cloudy,0,2013-03-25 13:15:00
6:35 AM,28.4,28.4,100,30.07,10.0,Calm,Calm,-,N/A,,Mostly Cloudy,0,2013-03-25 13:35:00
6:55 AM,28.4,28.4,100,30.07,10.0,Calm,Calm,-,N/A,,Mostly Cloudy,0,2013-03-25 13:55:00
7:15 AM,28.4,28.4,100,30.07,10.0,Calm,Calm,-,N/A,,Mostly Cloudy,0,2013-03-25 14:15:00
7:55 AM,32.0,32.0,100,30.07,10.0,Calm,Calm,-,N/A,,Mostly Cloudy,0,2013-03-25 14:55:00
8:15 AM,32.0,32.0,100,30.07,10.0,Calm,Calm,-,N/A,,Mostly Cloudy,0,2013-03-25 15:15:00
8:35 AM,33.8,33.8,100,30.07,10.0,Calm,Calm,-,N/A,,Scattered Clouds,0,2013-03-25 15:35:00
8:55 AM,35.6,35.6,100,30.07,10.0,Calm,Calm,-,N/A,,Scattered Clouds,0,2013-03-25 15:55:00
9:15 AM,39.2,37.4,93,30.07,10.0,Calm,Calm,-,N/A,,Scattered Clouds,0,2013-03-25 16:15:00
9:35 AM,41.0,35.6,81,30.07,10.0,Calm,Calm,-,N/A,,Mostly Cloudy,0,2013-03-25 16:35:00
9:55 AM,46.4,33.8,62,30.06,10.0,Calm,Calm,-,N/A,,Mostly Cloudy,0,2013-03-25 16:55:00
10:15 AM,48.2,32.0,54,30.06,10.0,Calm,Calm,-,N/A,,Mostly Cloudy,0,2013-03-25 17:15:00
10:35 AM,48.2,33.8,58,30.06,10.0,Calm,Calm,-,N/A,,Mostly Cloudy,0,2013-03-25 17:35:00
10:55 AM,50.0,32.0,50,30.05,10.0,Calm,Calm,-,N/A,,Mostly Cloudy,0,2013-03-25 17:55:00
11:15 AM,50.0,33.8,54,30.05,10.0,Calm,Calm,-,N/A,,Mostly Cloudy,0,2013-03-25 18:15:00
11:35 AM,53.6,33.8,47,30.04,10.0,Calm,Calm,-,N/A,,Overcast,0,2013-03-25 18:35:00
11:55 AM,53.6,33.8,47,30.04,10.0,Calm,Calm,-,N/A,,Overcast,0,2013-03-25 18:55:00
12:15 PM,53.6,35.6,51,30.03,10.0,North,3.5,-,N/A,,Mostly Cloudy,350,2013-03-25 19:15:00
12:35 PM,53.6,35.6,51,30.02,10.0,Calm,Calm,-,N/A,,Scattered Clouds,0,2013-03-25 19:35:00
12:55 PM,55.4,32.0,41,30.02,10.0,Calm,Calm,-,N/A,,Scattered Clouds,0,2013-03-25 19:55:00
1:15 PM,55.4,32.0,41,30.01,10.0,Calm,Calm,-,N/A,,Mostly Cloudy,0,2013-03-25 20:15:00
1:35 PM,57.2,32.0,38,30.00,10.0,North,3.5,-,N/A,,Mostly Cloudy,350,2013-03-25 20:35:00
1:55 PM,57.2,32.0,38,30.00,10.0,North,6.9,-,N/A,,Mostly Cloudy,350,2013-03-25 20:55:00
2:15 PM,59.0,30.2,34,29.99,10.0,North,3.5,-,N/A,,Mostly Cloudy,350,2013-03-25 21:15:00
2:35 PM,59.0,32.0,36,29.98,10.0,North,5.8,-,N/A,,Mostly Cloudy,350,2013-03-25 21:35:00
2:55 PM,59.0,30.2,34,29.98,10.0,North,3.5,-,N/A,,Scattered Clouds,10,2013-03-25 21:55:00
3:15 PM,59.0,30.2,34,29.97,10.0,NNW,5.8,-,N/A,,Mostly Cloudy,340,2013-03-25 22:15:00
3:35 PM,57.2,30.2,36,29.96,10.0,NNW,4.6,-,N/A,,Overcast,340,2013-03-25 22:35:00
3:55 PM,57.2,30.2,36,29.96,10.0,Calm,Calm,-,N/A,,Overcast,0,2013-03-25 22:55:00
4:15 PM,59.0,30.2,34,29.96,10.0,Calm,Calm,-,N/A,,Overcast,0,2013-03-25 23:15:00
4:55 PM,57.2,30.2,36,29.95,10.0,NNW,5.8,-,N/A,,Mostly Cloudy,330,2013-03-25 23:55:00
5:15 PM,57.2,30.2,36,29.95,10.0,NNW,3.5,-,N/A,,Overcast,340,2013-03-26 00:15:00
5:35 PM,57.2,28.4,33,29.94,10.0,NNW,3.5,-,N/A,,Mostly Cloudy,330,2013-03-26 00:35:00
5:55 PM,57.2,30.2,36,29.94,10.0,Calm,Calm,-,N/A,,Mostly Cloudy,0,2013-03-26 00:55:00
6:15 PM,57.2,28.4,33,29.94,10.0,North,3.5,-,N/A,,Mostly Cloudy,360,2013-03-26 01:15:00
6:35 PM,55.4,28.4,36,29.94,10.0,Calm,Calm,-,N/A,,Mostly Cloudy,0,2013-03-26 01:35:00
6:55 PM,55.4,30.2,38,29.94,10.0,Calm,Calm,-,N/A,,Mostly Cloudy,0,2013-03-26 01:55:00
7:15 PM,55.4,32.0,41,29.94,10.0,Calm,Calm,-,N/A,,Mostly Cloudy,0,2013-03-26 02:15:00
7:35 PM,55.4,30.2,38,29.94,10.0,Calm,Calm,-,N/A,,Mostly Cloudy,0,2013-03-26 02:35:00
7:55 PM,53.6,32.0,44,29.94,10.0,Calm,Calm,-,N/A,,Mostly Cloudy,0,2013-03-26 02:55:00
8:15 PM,50.0,32.0,50,29.94,10.0,Calm,Calm,-,N/A,,Mostly Cloudy,0,2013-03-26 03:15:00
8:35 PM,50.0,33.8,54,29.95,10.0,Calm,Calm,-,N/A,,Mostly Cloudy,0,2013-03-26 03:35:00
8:55 PM,50.0,35.6,58,29.95,10.0,Calm,Calm,-,N/A,,Mostly Cloudy,0,2013-03-26 03:55:00
9:15 PM,50.0,35.6,58,29.95,10.0,Calm,Calm,-,N/A,,Scattered Clouds,0,2013-03-26 04:15:00
9:35 PM,46.4,35.6,66,29.96,10.0,Calm,Calm,-,N/A,,Mostly Cloudy,0,2013-03-26 04:35:00
9:55 PM,44.6,35.6,71,29.96,10.0,Calm,Calm,-,N/A,,Mostly Cloudy,0,2013-03-26 04:55:00
10:15 PM,44.6,35.6,71,29.96,10.0,Calm,Calm,-,N/A,,Mostly Cloudy,0,2013-03-26 05:15:00
10:35 PM,44.6,35.6,71,29.96,10.0,Calm,Calm,-,N/A,,Overcast,0,2013-03-26 05:35:00
10:55 PM,44.6,37.4,76,29.96,10.0,Calm,Calm,-,N/A,,Overcast,0,2013-03-26 05:55:00
11:15 PM,44.6,39.2,81,29.97,10.0,Calm,Calm,-,N/A,,Overcast,0,2013-03-26 06:15:00
11:35 PM,44.6,39.2,81,29.97,10.0,Calm,Calm,-,N/A,,Overcast,0,2013-03-26 06:35:00
11:55 PM,44.6,41.0,87,29.97,10.0,Calm,Calm,-,N/A,,Overcast,0,2013-03-26 06:55:00